STARLINK-35159

Last updated on Thu Oct 02 2025 00:02:05 GMT+0000 (Coordinated Universal Time)

1 65461U 25195D 25274.50002315 .00082605 00000+0 20560-2 0 9995 2 65461 53.1589 280.9400 0001683 89.4728 285.9578 15.39572019 5005

Satellite not in orbit

STARLINK-35159